STARLINK-34600, 64699

Orbit data source: Space-Track

STARLINK-34600, 64699 is a payload satellite owned by SpaceX/Seattle (US) in LEO that was launched on Sat, 28 Jun 2025 UTC via an FALCON 9 launch vehicle from the Air Force Western Test Range (AFWTR). Payload-class satellites include a variety of spacecraft equipped with specific instruments for various scientific and technological missions. These include communications satellites like Starlink; space stations such as the ISS; scientific satellites like the Hubble; Earth observation satellites from companies like Planet Labs, Umbra, and HawkEye 360; GPS; miniature CubeSats for education and research; and military/defense satellites.

Loading next visibility...
Identifier
64699, 2025-142D
Orbit
LEO
Country
Flag of USUS
Related business
Manufacturer
SpaceX/Seattle
Mission
Operational Commercial Communications
Bus & Motor
STARLINK V2MO, Unknown motor
Mass
575 kg wet, ~530 kg dry
Launch date (UTC)
2025-06-28 (1 year ago)
Launch vehicle
FALCON 9
Launch site
Air Force Western Test Range (AFWTR)
Object type
Payload
Rocket body
Debris
Shape & HBR
Box + 2 Pan, 17.7 m
Radar Cross Section
36.964 m², Large (>1 m²)

Expand to show TLE details & history
Last TLE update: 6 hours ago

TLE from 6 hours ago
0 STARLINK-34600
1 64699U 25142D   26207.58745332  .00004294  00000-0  36734-3 0  9997
2 64699  70.0022 324.3251 0002990 265.5855  94.4962 14.98336564 60282
Epoch: 2026-07-26T14:05Z
TLE epoch observation values (Epoch: 2026-07-26T14:05:55.966Z)
Latitude
-0.00009°
Longitude
168.55864°
Altitude
574.623 km
Speed
7.574 km/s
True Right ascension
21h 37m 18s
True Declination
0° 00' 00"
Sunlit
Object was in full shadow at epoch
Visualization orbit readout
Latitude
Unknown
Longitude
Unknown
Altitude
Unknown
Speed
Unknown
Apparent Right ascension
Unknown
Apparent Declination
Unknown
Sunlit
N/A
Visualization observer readout
Local Sidereal Time
09:49:25
Azimuth
Unknown
Elevation
Unknown
Doppler factor
Unknown
Orbital elements
Apogee altitude
572.061 km
Perigee altitude
567.906 km
Semi-major axis
6,948.121 km
Eccentricity
0.0003
Inclination
70.0022°
RAAN
324.3251°
Arg. of periapsis
265.5855°
True anomaly
94.53036°
Mean anomaly
94.4962°
Eccentric anomaly
94.51328°
Mean motion
3.7475 °/min
Orbital period
96.06 mins
BSTAR
0.00036734
Loading maneuver chart data...
Computing Atmospheric mass density...
Loading historical data...
Loading historical data...
Loading historical data...
Loading historical data...
Loading historical data...
Loading historical data...
Loading historical data...

Documentation

Showing up to 5 results
|